CW9507 Weather Reports


time (UTC)temp
C
wind
direction
speed
KPH
gust
KPH
rain 1hr
cm
rain 24hr
cm
rain mn
cm
humidity
%
barometer
mb
20260508194536 16 199 0.0 14.5 0.33 1.30 0.36 50 1008.2
20260508193034 16 276 0.0 6.4 0.33 1.30 0.36 48 1008.3
20260508191537 16 142 0.0 9.7 0.15 1.09 0.15 49 1008.6
20260508190034 16 267 0.0 14.5 0.10 1.04 0.10 52 1008.9
20260508184529 16 200 0.0 8.0 0.03 1.04 0.03 53 1009.0
20260508183023 16 103 0.0 11.3 0.03 1.04 0.03 58 1009.1
20260508181531 16 206 0.0 8.0 0.00 1.02 0.00 59 1009.2
20260508180016 15 190 0.0 4.8 0.00 1.02 0.00 61 1009.4
20260508174513 15 169 0.0 1.6 0.00 1.24 0.00 62 1009.7
20260508173010 14 171 0.0 1.6 0.00 1.24 0.00 63 1010.2
20260508171513 14 118 0.0 0.0 0.00 1.24 0.00 62 1010.3
20260508170005 14 205 0.0 0.0 0.00 1.24 0.00 61 1010.5
20260508164503 14 254 0.0 0.0 0.00 1.55 0.00 63 1010.8
20260508163059 13 223 0.0 3.2 0.00 1.55 0.00 65 1011.0
20260508161557 13 112 0.0 0.0 0.00 1.55 0.00 64 1011.3
20260508160054 12 157 0.0 0.0 0.00 1.55 0.00 65 1011.4
20260508154559 12 290 0.0 1.6 0.00 1.78 0.00 66 1011.5
20260508153055 12 198 0.0 0.0 0.00 1.78 0.00 65 1011.4
20260508151554 12 196 0.0 0.0 0.00 1.78 0.00 68 1011.4
20260508150049 12 346 0.0 1.6 0.00 1.78 0.00 66 1011.5
20260508144549 12 333 0.0 1.6 0.00 1.78 0.00 72 1011.6
20260508143045 11 182 0.0 1.6 0.00 1.78 0.00 75 1011.8
20260508141609 11 17 0.0 0.0 0.00 1.78 0.00 79 1011.9
20260508140039 10 329 0.0 0.0 0.00 1.78 0.00 80 1011.8
20260508134551 10 254 0.0 0.0 0.00 1.78 0.00 81 1011.9
20260508133035 10 161 0.0 0.0 0.00 1.78 0.00 84 1012.0
20260508131535 10 228 0.0 1.6 0.00 1.78 0.00 84 1012.0
20260508130029 9 165 0.0 0.0 0.00 1.78 0.00 86 1012.0
20260508124527 8 162 0.0 3.2 0.00 1.78 0.00 88 1011.9
20260508123030 8 210 0.0 4.8 0.00 1.78 0.00 91 1011.9
20260508121521 7 246 0.0 1.6 0.00 1.78 0.00 92 1011.8
20260508120018 7 241 0.0 0.0 0.00 1.78 0.00 93 1011.7
20260508114518 6 241 0.0 0.0 0.00 1.78 0.00 93 1011.6
20260508113017 6 241 0.0 0.0 0.00 1.78 0.00 93 1011.5
20260508111517 6 241 0.0 0.0 0.00 1.78 0.00 93 1011.2
20260508110017 6 254 0.0 0.0 0.00 1.78 0.00 92 1011.0
20260508104520 6 254 0.0 0.0 0.00 1.78 0.00 92 1011.0
20260508103016 6 254 0.0 0.0 0.00 1.78 0.00 92 1011.0
20260508101518 6 254 0.0 0.0 0.00 1.78 0.00 92 1011.0
20260508100013 6 254 0.0 0.0 0.00 1.78 0.00 92 1011.2
20260508094513 6 254 0.0 0.0 0.00 1.78 0.00 92 1011.2
20260508093016 5 254 0.0 0.0 0.00 1.78 0.00 92 1011.2
20260508091511 5 254 0.0 0.0 0.00 1.78 0.00 91 1011.2
20260508090021 5 254 0.0 0.0 0.00 1.78 0.00 91 1011.0
20260508084509 5 254 0.0 0.0 0.00 1.78 0.00 91 1011.1
20260508083008 5 254 0.0 0.0 0.00 1.78 0.00 89 1011.1
20260508081509 6 254 0.0 0.0 0.00 1.78 0.00 89 1011.2
20260508080006 6 254 0.0 0.0 0.00 1.78 0.00 89 1011.2
20260508074506 6 254 0.0 0.0 0.00 1.78 0.00 89 1011.2
20260508073005 6 255 0.0 0.0 0.00 1.78 0.00 89 1011.1
20260508071506 6 255 0.0 0.0 0.00 1.78 0.00 90 1011.4
20260508070002 6 255 0.0 0.0 0.00 1.78 0.00 89 1011.4
20260508064502 6 255 0.0 0.0 0.00 1.78 0.00 88 1011.5
20260508063001 6 163 0.0 0.0 0.00 1.78 0.00 88 1011.4
20260508061604 6 163 0.0 0.0 0.00 1.78 0.00 87 1011.5
20260508054557 5 238 0.0 0.0 0.00 1.78 0.00 86 1011.7
20260508053056 5 238 0.0 0.0 0.00 1.78 0.00 85 1011.8
20260508051554 6 238 0.0 0.0 0.00 1.78 0.00 84 1011.7
20260508050051 6 238 0.0 0.0 0.00 1.78 0.00 83 1011.6
20260508044548 6 238 0.0 0.0 0.00 1.78 0.00 81 1011.7
20260508043046 7 238 0.0 0.0 0.00 1.78 0.00 80 1011.6
20260508041543 7 238 0.0 0.0 0.00 1.78 0.00 80 1011.7
20260508040039 7 238 0.0 0.0 0.00 1.78 0.00 77 1011.8
20260508034539 8 238 0.0 0.0 0.00 1.78 1.78 74 1012.0
20260508033039 8 238 0.0 0.0 0.00 1.78 1.78 73 1011.9
20260508031538 10 238 0.0 0.0 0.00 1.78 1.78 73 1012.0
20260508030043 10 229 0.0 0.0 0.00 1.78 1.78 72 1012.1
20260508024539 10 214 0.0 0.0 0.10 1.78 1.78 71 1012.1
20260508023036 10 189 0.0 6.4 0.15 1.78 1.78 68 1012.1
20260508021545 10 259 0.0 4.8 0.18 1.78 1.78 67 1012.0
20260508020035 10 184 0.0 0.0 0.18 1.78 1.78 65 1012.0
20260508014534 10 175 3.2 16.1 0.08 1.68 1.68 63 1011.9
20260508013040 11 236 0.0 11.3 0.03 1.63 1.63 60 1011.8
20260508011537 11 213 0.0 1.6 0.00 1.60 1.60 55 1011.3
20260508010034 11 248 0.0 0.0 0.00 1.60 1.60 53 1011.2
20260508004538 12 243 0.0 4.8 0.00 1.60 1.60 54 1011.3
20260508003032 12 246 0.0 0.0 0.00 1.60 1.60 52 1011.0
20260508001533 12 263 0.0 0.0 0.00 1.60 1.60 52 1010.9
20260508000030 12 186 0.0 0.0 0.03 1.60 1.60 47 1011.0
20260507234530 13 249 0.0 6.4 0.03 1.60 1.60 46 1010.9
20260507233036 13 222 0.0 0.0 0.03 1.60 1.60 44 1010.9
20260507231528 13 195 0.0 6.4 0.03 1.60 1.60 42 1010.9
20260507230027 13 236 0.0 1.6 0.00 1.57 1.57 43 1011.1
20260507224531 13 236 0.0 0.0 0.08 1.57 1.57 42 1011.1
20260507223025 13 244 0.0 6.4 0.08 1.57 1.57 43 1011.1
20260507221524 13 227 0.0 8.0 0.08 1.57 1.57 44 1011.2
20260507220022 13 254 0.0 6.4 0.08 1.57 1.57 43 1011.3
20260507214526 13 226 0.0 1.6 0.25 1.50 1.50 43 1011.3
20260507213022 13 290 0.0 6.4 0.30 1.50 1.50 43 1011.2
20260507211517 13 249 0.0 1.6 0.36 1.50 1.50 44 1011.3
20260507210032 13 219 0.0 17.7 0.36 1.50 1.50 42 1011.4
20260507204515 13 238 0.0 3.2 0.15 1.27 1.24 42 1011.5
20260507203014 13 294 0.0 12.9 0.33 1.22 1.19 44 1011.7
20260507201513 13 209 0.0 14.5 0.28 1.17 1.14 47 1011.8
20260507200015 12 252 0.0 11.3 0.30 1.17 1.14 47 1011.7